Location: Unspecified
(48.8656°N, 0.0000°E)
Time: 01:10:12
(UTC+00:00)

SR - Pass Details

Date: 25 June 2019
Orbit: 580 x 876 km, 66.7° (Epoch: 20 July)

Event Time Altitude Azimuth Distance (km) Brightness Sun altitude
Rises 12:39:25 0° 313° (NW) 3,047 ? 63.5°
Reaches altitude 10° 12:42:06 10° 299° (WNW) 2,180 ? 63.4°
Maximum altitude 12:45:53 22° 249° (WSW) 1,577 ? 63.1°
Drops below altitude 10° 12:49:53 10° 200° (SSW) 2,318 ? 62.9°
Sets 12:52:50 0° 186° (S) 3,295 ? 62.7°
